CAPE
4 6 16 12 32 30 24 24 4 16 0 0 1 1 4 0 2 0 0 0 0 0 0 0 0 0 0 0 0 0 0 0 0 0 0 0 0 0 0 0 0 0 0 0 0 0 0 0 0 0 0 0 0 0
1 4 10 19 34 37 24 25 10 9 0 0 0 0 2 7 9 0 0 0 0 0 0 0 0 0 0 0 0 0 0 0 0 0 0 0 0 0 0 0 0 0 0 0 0 0 0 0 0 0 0 0 0 0
1 0 9 17 39 48 24 22 14 4 0 0 0 0 2 4 0 0 0 0 0 0 0 0 0 0 0 0 0 0 0 0 0 0 0 0 0 0 0 0 0 0 0 0 0 0 0 0 0 0 0 0 0 0
0 1 7 1 38 55 34 13 13 6 0 0 0 0 10 4 0 0 0 0 0 0 0 0 0 0 0 0 0 0 0 0 0 0 0 0 0 0 0 0 0 0 0 0 0 0 0 0 0 0 0 0 0 0
6 10 5 4 20 40 29 23 13 9 0 1 0 0 30 2 0 0 0 0 0 0 0 0 0 0 0 0 0 0 0 0 0 0 0 0 0 0 0 0 0 0 0 0 0 0 0 0 0 0 0 0 0 0
26 13 11 11 8 19 14 3 7 6 0 1 0 0 14 2 0 0 0 0 0 0 0 0 0 0 0 0 0 0 0 0 0 0 0 0 0 0 0 0 0 0 0 0 0 0 0 0 0 0 0 0 0 0
4 2 2 5 8 20 16 1 0 4 0 0 0 1 8 2 0 0 0 0 0 0 0 0 0 0 0 0 0 0 0 0 0 0 0 0 0 0 0 0 0 0 0 0 0 0 0 0 0 0 0 0 0 0
18 12 21 34 16 18 11 1 0 2 1 0 0 1 0 0 0 0 0 0 0 0 0 0 0 0 0 0 0 0 0 0 0 0 0 0 0 0 0 0 0 0 0 0 0 0 0 0 0 0 0 0 0 2
23 29 21 28 33 17 7 0 0 2 8 1 2 0 0 0 0 0 0 0 0 0 0 0 0 0 0 0 0 0 0 0 0 0 0 0 0 0 0 0 0 0 0 0 0 0 0 0 0 0 0 1 0 0
9 27 38 31 14 12 4 1 3 1 8 1 0 0 0 0 0 0 0 0 0 0 0 0 0 0 0 0 0 0 0 0 0 0 0 0 0 0 0 0 0 0 0 0 0 0 0 0 0 0 1 2 1 0
3 23 39 13 6 5 5 21 0 15 0 0 0 0 1 0 0 0 0 0 0 0 0 0 0 0 0 0 0 0 0 0 0 0 0 0 0 0 0 0 0 0 0 0 0 0 1 0 0 1 1 1 1 1
22 18 9 9 9 22 5 2 18 0 0 0 0 0 0 0 1 0 0 0 0 0 0 0 0 0 0 0 0 0 0 0 0 0 0 0 0 0 0 0 0 0 0 0 0 1 2 1 0 0 1 0 1 2
5 4 21 10 16 0 20 12 0 0 0 0 0 0 0 0 0 0 0 0 0 0 0 0 0 0 0 0 0 0 0 0 0 1 0 0 0 0 0 0 0 0 0 0 0 1 0 0 0 0 0 0 1 0
14 11 32 5 0 0 27 0 0 0 0 0 0 0 0 0 0 0 0 0 0 0 0 0 0 0 0 0 0 0 0 0 0 0 0 0 0 0 0 0 0 0 0 0 0 0 0 0 0 0 0 0 0 0
19 16 0 0 3 20 4 0 0 0 0 0 0 0 0 0 0 0 0 0 0 0 0 0 0 0 0 0 0 0 0 0 0 0 0 0 0 0 0 0 1 0 0 0 0 0 0 1 0 0 0 0 0 0
9 2 0 0 14 3 2 0 0 0 0 0 0 0 1 0 0 0 0 0 0 0 0 0 0 0 0 0 0 0 0 0 0 0 0 0 0 0 0 0 0 0 0 0 0 0 0 0 0 0 0 0 0 0
0 0 5 24 8 11 0 0 0 0 0 0 1 0 0 0 0 0 0 0 0 0 0 0 0 0 0 0 0 0 0 0 0 0 0 0 0 0 0 0 0 0 0 0 0 0 0 0 0 0 0 0 0 0
0 0 1 9 3 0 0 1 1 0 0 0 1 0 0 0 0 0 0 0 0 0 0 0 0 0 0 0 0 0 0 0 0 0 0 0 0 0 0 0 0 0 0 0 0 0 0 0 0 0 0 0 0 0
6 0 13 9 0 0 0 0 0 0 0 0 0 0 0 1 0 0 0 0 0 0 0 0 0 0 0 0 0 0 0 0 0 0 0 0 0 0 0 0 0 0 0 0 0 0 0 0 0 0 0 0 0 0
12 4 0 0 0 0 0 0 0 0 0 0 0 0 0 0 0 0 0 0 0 0 0 0 0 0 0 0 0 0 0 0 0 0 0 0 0 0 0 0 0 0 0 0 0 0 0 0 0 0 0 0 0 0
1 0 0 0 0 0 0 0 0 0 0 0 0 0 0 0 0 0 0 0 0 0 0 0 0 0 0 0 0 0 0 0 0 0 0 0 0 0 0 0 0 0 0 0 0 0 0 0 0 0 0 0 0 0
1 0 0 0 0 0 0 0 0 0 0 0 0 0 0 0 0 0 0 0 0 0 0 0 0 0 0 0 0 0 0 0 0 0 0 0 0 0 0 0 0 0 0 0 0 0 0 0 0 0 0 0 0 0
0 0 0 0 0 0 0 0 0 0 0 0 0 0 0 0 0 0 0 0 0 0 0 0 0 0 0 0 0 0 0 0 0 0 0 0 0 0 0 0 0 0 0 0 0 0 0 0 0 0 0 0 0 0
0 0 0 0 0 0 0 0 0 0 0 0 0 0 0 0 0 0 0 0 0 0 0 0 0 0 0 0 0 0 0 0 0 0 0 0 0 0 0 0 0 0 0 0 0 0 0 0 0 0 0 0 0 0
0 0 0 0 0 0 0 0 0 0 0 0 0 0 0 0 0 0 0 0 0 0 0 0 0 0 0 0 0 0 0 0 0 0 0 0 0 0 0 0 0 0 0 0 0 0 0 0 0 0 0 0 0 0
0 0 0 0 0 0 0 0 0 0 0 0 0 0 0 0 0 0 0 0 0 0 0 0 0 0 0 0 0 0 0 0 0 0 0 0 0 0 0 0 0 0 0 0 0 0 0 0 0 0 0 0 0 0
0 0 0 0 0 0 0 0 0 0 0 0 0 0 0 0 0 0 0 0 0 0 0 0 0 0 0 0 0 0 0 0 0 0 0 0 0 0 0 0 0 0 0 0 0 0 0 0 0 0 0 0 0 0
0 0 0 0 0 0 0 0 0 0 0 0 0 0 0 0 0 0 0 0 0 0 0 0 0 0 0 0 0 0 0 0 0 0 0 0 0 0 0 0 0 0 0 0 0 0 0 0 0 0 0 0 0 0
0 0 0 0 0 0 0 0 0 0 0 0 0 0 0 0 0 0 0 0 0 0 0 0 0 0 0 0 0 0 0 0 0 0 0 0 0 0 0 0 0 0 0 0 0 0 0 0 0 0 0 0 0 0
0 0 0 0 0 0 0 0 0 0 0 0 0 0 0 0 0 0 0 0 0 0 0 0 0 0 0 0 0 0 0 0 0 0 0 0 0 0 0 0 0 0 0 0 0 0 0 0 0 0 0 0 0 0
0 0 0 0 0 0 0 0 0 0 0 0 0 0 0 0 0 0 0 0 0 0 0 0 0 0 0 0 0 0 0 0 0 0 0 0 0 0 0 0 0 0 0 0 0 0 0 0 0 0 0 0 0 0
0 0 0 0 0 0 0 0 0 0 0 0 0 0 0 0 0 0 0 0 0 0 0 0 0 0 0 0 0 0 0 0 0 0 0 0 0 0 0 0 0 0 0 0 0 0 0 0 0 0 0 0 0 0
0 0 0 0 0 0 0 0 0 0 0 0 0 0 0 0 0 0 0 0 0 0 0 0 0 0 0 0 0 0 0 0 0 0 0 0 0 0 0 0 0 0 0 0 0 0 0 0 0 0 0 0 0 0
CIN
0 0 0 0 0 0 0 0 0 0 0 0 0 -1 0 0 -13 0 0 0 0 0 0 0 0 0 0 0 0 0 0 0 0 0 0 0 0 0 0 0 0 0 0 0 0 0 0 0 0 0 0 0 0 0
0 0 0 0 0 0 0 0 0 0 0 0 0 0 0 -11 0 0 0 0 0 0 0 0 0 0 0 0 0 0 0 0 0 0 0 0 0 0 0 0 0 0 0 0 0 0 0 0 0 0 0 0 0 0
-1 0 -1 0 0 0 0 0 0 0 0 0 0 0 0 0 0 0 0 0 0 0 0 0 0 0 0 0 0 0 0 0 0 0 0 0 0 0 0 0 0 0 0 0 0 0 0 0 0 0 0 0 0 0
-1 -2 0 0 0 0 0 0 0 0 0 0 0 0 0 0 0 0 0 0 0 0 0 0 0 0 0 0 0 0 0 0 0 0 0 0 0 0 0 0 0 0 0 0 0 0 0 0 0 0 0 0 0 0
0 0 0 0 0 0 -1 0 0 0 0 0 0 0 0 0 0 0 0 0 0 0 0 0 0 0 0 0 0 0 0 0 0 0 0 0 0 0 0 0 0 0 0 0 0 0 0 0 0 0 0 0 0 0
0 -1 0 -1 0 -1 -2 -2 -3 -1 0 0 0 0 -1 0 0 0 0 0 0 0 0 0 0 0 0 0 0 0 0 0 0 0 0 0 0 0 0 0 0 0 0 0 0 0 0 0 0 0 0 0 0 0
-2 -1 -1 -2 -4 -2 -4 -1 0 -1 0 0 0 0 -2 0 0 0 0 0 0 0 0 0 0 0 0 0 0 0 0 0 0 0 0 0 0 0 0 0 0 0 0 0 0 0 0 0 0 0 0 0 0 0
0 -1 -1 0 0 -5 -10 0 0 -1 0 0 0 0 0 0 0 0 0 0 0 0 0 0 0 0 0 0 0 0 0 0 0 0 0 0 0 0 0 0 0 0 0 0 0 0 0 -1 0 0 0 0 0 -12
0 -2 0 0 0 -1 -3 0 0 0 0 0 0 0 0 0 0 0 0 0 0 0 0 0 0 0 0 0 0 0 0 0 0 0 0 0 0 0 0 0 0 0 0 0 0 0 0 0 0 0 0 0 0 -5
0 -1 0 0 -1 -1 -3 0 0 -1 0 0 0 0 0 0 0 0 0 0 0 0 0 0 0 0 0 0 0 0 0 0 0 0 0 0 0 0 0 0 0 0 0 0 -2 0 0 0 0 0 0 0 0 0
-7 -2 0 0 -1 -1 0 0 0 0 0 0 0 0 0 0 0 0 0 0 0 0 0 0 0 0 0 0 0 0 0 0 0 0 0 0 0 0 0 0 0 0 0 0 0 0 -5 -1 -1 0 0 0 0 0
-1 0 -1 -1 0 -1 -1 0 0 0 0 0 0 0 0 0 0 0 0 0 0 0 0 0 0 0 0 0 0 0 0 0 0 0 0 0 0 0 0 0 0 0 0 0 0 0 0 -9 0 0 0 0 0 0
0 0 0 -2 -6 0 0 0 0 0 0 0 0 0 0 0 0 0 0 0 0 0 0 0 0 0 0 0 0 0 0 0 0 0 0 0 0 0 0 0 0 0 0 0 0 0 0 0 0 0 0 0 0 0
0 0 0 -1 0 0 0 0 0 0 0 0 0 0 0 0 0 0 0 0 0 0 0 0 0 0 0 0 0 0 0 0 0 0 0 0 0 0 0 0 0 0 0 -2 0 0 0 0 0 0 0 0 0 0
0 -3 0 0 -15 0 -6 0 0 0 0 0 0 0 0 0 0 0 0 0 0 0 0 0 0 0 0 0 0 0 0 0 0 0 0 0 0 0 0 0 0 0 0 0 0 0 0 0 0 0 0 0 0 0
-8 -6 0 -2 0 -1 0 -4 0 0 0 0 0 0 0 0 0 0 0 0 0 0 0 0 0 0 0 0 0 0 0 0 0 0 0 0 0 0 0 0 0 0 0 0 0 0 0 0 0 0 0 0 0 0
0 0 -2 -9 -1 0 -5 0 0 0 0 0 0 0 0 0 0 0 0 0 0 0 0 0 0 0 0 0 0 0 0 0 0 0 0 0 0 0 0 0 0 0 0 0 0 0 0 0 0 -1 0 0 0 0
0 0 0 0 -2 0 0 0 0 0 0 0 0 0 0 0 0 0 0 0 0 0 0 0 0 0 0 0 0 0 0 0 0 0 0 0 0 0 0 0 0 0 0 0 0 0 0 0 0 0 0 0 0 0
-47 0 0 0 0 0 0 0 0 0 0 0 0 0 0 0 0 0 0 0 0 0 0 0 0 0 0 0 0 0 0 0 0 0 0 0 0 0 0 0 0 0 0 0 0 0 0 0 0 0 0 0 0 0
-16 0 0 0 0 0 0 0 0 0 0 0 0 0 0 0 0 0 0 0 0 0 0 0 0 0 0 0 0 0 0 0 0 0 0 0 0 0 0 0 0 0 0 0 0 0 0 0 0 0 0 0 0 0
0 0 0 0 0 0 0 0 0 0 0 0 0 0 0 0 0 0 0 0 0 0 0 0 0 0 0 0 0 0 0 0 0 0 0 0 0 0 0 0 0 0 0 0 0 0 0 0 0 0 0 0 0 0
0 0 0 0 0 0 0 0 0 0 0 0 0 0 0 0 0 0 0 0 0 0 0 0 0 0 0 0 0 0 0 0 0 0 0 0 0 0 0 0 0 0 0 0 0 0 0 0 0 0 0 0 0 0
0 0 0 0 0 0 0 0 0 0 0 0 0 0 0 0 0 0 0 0 0 0 0 0 0 0 0 0 0 0 0 0 0 0 0 0 0 0 0 0 0 0 0 0 0 0 0 0 0 0 0 0 0 0
0 0 0 0 0 0 0 0 0 0 0 0 0 0 0 0 0 0 0 0 0 0 0 0 0 0 0 0 0 0 0 0 0 0 0 0 0 0 0 0 0 0 0 0 0 0 0 0 0 0 0 0 0 0
0 0 0 0 0 0 0 0 0 0 0 0 0 0 0 0 0 0 0 0 0 0 0 0 0 0 0 0 0 0 0 0 0 0 0 0 0 0 0 0 0 0 0 0 0 0 0 0 0 0 0 0 0 0
0 0 0 0 0 0 0 0 0 0 0 0 0 0 0 0 0 0 0 0 0 0 0 0 0 0 0 0 0 0 0 0 0 0 0 0 0 0 0 0 0 0 0 0 0 0 0 0 0 0 0 0 0 0
0 0 0 0 0 0 0 0 0 0 0 0 0 0 0 0 0 0 0 0 0 0 0 0 0 0 0 0 0 0 0 0 0 0 0 0 0 0 0 0 0 0 0 0 0 0 0 0 0 0 0 0 0 0
0 0 0 0 0 0 0 0 0 0 0 0 0 0 0 0 0 0 0 0 0 0 0 0 0 0 0 0 0 0 0 0 0 0 0 0 0 0 0 0 0 0 0 0 0 0 0 0 0 0 0 0 0 0
0 0 0 0 0 0 0 0 0 0 0 0 0 0 0 0 0 0 0 0 0 0 0 0 0 0 0 0 0 0 0 0 0 0 0 0 0 0 0 0 0 0 0 0 0 0 0 0 0 0 0 0 0 0
0 0 0 0 0 0 0 0 0 0 0 0 0 0 0 0 0 0 0 0 0 0 0 0 0 0 0 0 0 0 0 0 0 0 0 0 0 0 0 0 0 0 0 0 0 0 0 0 0 0 0 0 0 0
0 0 0 0 0 0 0 0 0 0 0 0 0 0 0 0 0 0 0 0 0 0 0 0 0 0 0 0 0 0 0 0 0 0 0 0 0 0 0 0 0 0 0 0 0 0 0 0 0 0 0 0 0 0
0 0 0 0 0 0 0 0 0 0 0 0 0 0 0 0 0 0 0 0 0 0 0 0 0 0 0 0 0 0 0 0 0 0 0 0 0 0 0 0 0 0 0 0 0 0 0 0 0 0 0 0 0 0
0 0 0 0 0 0 0 0 0 0 0 0 0 0 0 0 0 0 0 0 0 0 0 0 0 0 0 0 0 0 0 0 0 0 0 0 0 0 0 0 0 0 0 0 0 0 0 0 0 0 0 0 0 0
Wind_Speed
31 29 27 26 22 19 12 7 34 33 31 28 24 21 28 47 33 26 22 22 21 17 18 19 19 21 18 18 18 13 13 17 9 12 14 13 13 12 13 13 15 15 17 18 19 21 22 17 15 13 8 17 21 22
31 29 28 25 21 16 11 8 36 35 32 30 27 25 24 46 34 28 26 18 10 12 19 14 11 12 16 16 13 13 18 7 12 14 12 14 12 13 12 12 12 14 13 17 14 15 14 14 12 10 8 13 23 25
32 32 29 25 20 15 11 23 38 37 35 32 29 28 27 38 24 26 28 20 12 16 17 18 18 17 15 17 17 17 19 12 12 14 13 13 11 12 11 10 11 10 11 12 15 15 14 13 11 9 11 10 24 27
35 33 29 25 21 17 18 40 40 40 37 34 30 30 30 20 25 25 25 23 16 19 22 22 19 18 19 17 17 17 13 13 12 14 15 13 11 11 11 11 10 11 12 11 10 10 13 14 13 11 7 11 27 27
37 34 30 26 23 20 19 44 42 42 39 35 31 30 24 22 26 21 16 24 24 25 23 23 19 17 15 13 12 12 12 13 14 14 14 12 12 12 12 11 7 9 10 11 13 15 15 15 14 11 11 9 9 26
37 34 31 30 29 29 33 46 45 44 41 38 34 32 27 26 27 22 27 28 22 16 19 21 22 19 17 13 13 14 15 15 15 14 14 13 12 12 11 11 11 10 11 11 14 16 15 15 16 16 16 11 6 5
38 34 33 28 25 29 45 46 47 46 41 38 34 33 25 27 29 31 28 27 18 17 21 18 20 23 20 19 18 17 17 17 15 14 13 12 12 11 10 7 11 10 11 12 15 16 19 20 19 17 18 15 9 2
36 33 29 25 24 37 49 51 48 46 41 37 33 22 20 22 23 31 21 16 22 19 21 23 20 19 19 18 17 18 17 16 17 14 13 12 12 10 8 6 11 11 11 12 14 15 17 19 20 20 19 18 13 7
34 30 26 26 25 46 50 52 48 45 40 39 29 22 17 22 29 26 17 15 16 24 25 25 23 24 17 16 16 17 16 16 16 14 12 11 9 7 8 9 9 8 11 13 15 15 17 19 20 20 19 16 14 11
32 25 23 24 37 49 51 51 46 39 36 38 30 24 26 24 16 15 19 24 25 27 26 26 20 22 16 16 16 15 16 14 14 13 12 10 6 4 6 9 10 10 10 12 15 17 17 18 20 19 18 16 15 15
16 15 22 25 42 49 51 50 43 46 41 35 30 26 19 17 20 20 26 26 27 30 30 26 24 16 20 15 14 17 12 14 15 13 12 13 11 8 7 7 8 10 11 13 14 15 15 15 17 18 17 14 13 12
17 21 24 32 44 46 45 46 54 44 37 33 24 19 18 19 22 28 30 28 31 34 25 24 24 18 15 15 15 14 14 14 14 11 14 14 9 9 10 10 10 11 12 14 15 16 15 16 16 16 16 15 13 11
20 21 25 39 41 37 47 53 43 37 34 28 23 24 23 24 32 34 38 36 34 25 23 20 17 17 16 17 15 13 12 12 12 13 13 8 10 9 10 11 12 12 13 15 15 16 16 16 16 16 16 15 14 13
21 22 37 35 35 43 50 43 41 36 32 28 29 34 32 34 37 32 33 31 27 22 13 15 14 14 14 12 11 11 11 11 13 13 12 10 6 9 9 10 11 12 13 15 15 16 16 17 16 17 16 15 15 13
23 30 29 31 38 48 47 41 33 29 27 29 26 35 35 30 26 25 21 20 23 16 14 11 13 12 9 10 10 10 10 13 10 11 10 8 8 9 8 9 10 12 13 14 15 16 17 17 17 17 18 17 15 13
21 20 26 37 45 45 41 32 27 27 22 25 26 30 28 27 24 25 24 19 19 18 16 13 12 9 8 7 8 8 8 11 13 9 8 9 8 8 8 9 10 12 13 14 14 15 16 17 18 18 18 17 15 15
17 26 34 50 47 38 33 30 27 27 25 26 27 22 26 25 26 24 23 24 22 22 19 13 9 8 7 11 11 7 7 9 9 7 8 8 8 7 7 9 11 12 13 14 14 15 16 16 17 18 19 18 16 15
26 37 36 42 40 32 31 26 25 24 26 26 27 24 22 22 22 21 23 21 24 24 17 14 9 9 10 11 12 9 6 8 8 7 8 8 8 8 7 8 10 12 13 13 14 15 16 17 18 19 19 20 20 18
35 42 44 41 33 30 27 27 22 27 26 25 23 21 19 18 16 20 20 21 18 16 10 14 15 14 14 12 11 7 6 6 6 7 7 8 8 7 8 8 10 11 12 13 14 16 18 19 20 20 21 21 20 19
43 41 41 36 28 24 23 24 23 25 27 24 20 19 18 17 17 18 17 19 18 17 17 18 18 15 11 10 8 7 6 7 6 7 8 8 8 8 8 8 10 12 13 14 16 18 19 20 20 20 20 20 20 20
30 32 32 29 28 20 20 24 25 23 23 23 20 17 18 17 18 20 20 19 20 20 19 17 14 9 8 8 9 8 6 6 7 9 9 9 9 9 10 10 11 13 14 16 18 19 18 19 20 20 20 21 20 21
31 28 29 26 26 20 20 20 23 20 22 22 20 19 19 21 21 21 20 21 22 21 16 13 8 5 6 8 9 9 8 9 11 12 13 12 12 12 12 12 12 13 14 16 18 18 18 18 18 19 20 22 22 22
26 27 26 23 23 24 24 18 24 22 23 24 23 21 22 21 21 18 20 23 23 18 14 11 8 7 6 8 8 10 10 10 11 12 13 14 15 15 16 15 13 14 16 18 17 17 17 17 18 20 22 23 23 23
23 24 24 26 25 24 21 23 20 22 22 24 25 23 22 20 19 21 23 22 19 15 12 11 8 6 9 9 10 11 13 13 13 14 15 14 15 16 16 16 16 17 18 19 18 17 17 17 19 21 23 24 24 25
24 25 24 27 25 23 23 23 23 24 27 25 24 24 22 20 23 24 23 21 16 12 10 8 8 8 8 10 12 13 14 13 13 13 14 14 15 15 16 17 18 19 19 18 18 19 19 20 22 24 25 26 28 29
26 22 28 26 27 26 24 25 24 23 22 23 22 19 19 20 22 23 20 18 15 11 7 7 6 7 9 12 11 11 12 12 12 12 13 13 14 15 17 18 19 20 21 21 21 22 23 24 26 28 29 30 31 32
26 24 23 22 21 20 21 19 18 20 21 22 21 19 19 22 23 19 16 13 13 11 8 6 6 6 5 6 9 10 10 11 12 12 13 14 16 18 19 20 21 21 21 22 23 25 27 29 30 31 33 33 34 34
20 19 24 21 20 21 22 22 22 22 20 17 15 21 19 19 19 15 15 15 11 7 5 6 7 4 4 5 6 7 9 10 12 13 15 17 19 20 21 21 22 22 24 25 27 28 29 30 32 33 34 35 35 33
15 13 14 16 17 19 20 21 21 20 18 17 20 21 19 18 16 15 12 8 5 3 2 2 3 4 5 7 9 10 8 9 13 15 18 20 21 21 22 23 25 26 27 28 29 29 30 30 30 31 31 32 33 34
15 14 15 18 20 21 19 18 19 17 16 16 16 16 17 16 14 12 8 5 3 2 2 2 2 3 3 5 7 10 12 14 16 17 19 21 21 20 22 24 26 27 28 30 31 31 30 29 30 31 32 33 33 33
15 16 16 17 19 17 16 14 13 13 15 17 16 16 15 13 11 10 8 7 6 4 2 2 5 4 5 5 8 9 12 13 15 17 18 19 20 22 24 26 27 28 29 29 29 28 29 29 30 30 30 30 30 30
17 17 17 17 17 14 14 15 15 15 15 15 15 14 13 13 12 10 9 7 5 4 5 3 3 4 7 9 10 12 13 11 13 16 18 20 22 24 25 26 26 26 26 25 25 26 26 26 27 26 27 28 28 28
14 14 14 14 15 16 14 14 16 15 15 15 15 14 14 13 13 9 9 9 8 6 5 4 5 4 6 8 9 11 12 14 16 17 19 21 23 24 24 24 24 23 24 24 25 25 24 25 26 26 27 28 28 29
Wind_Direction
316 317 316 316 317 320 315 300 249 250 251 256 252 248 214 193 210 213 220 229 231 239 228 228 236 234 245 251 261 290 313 256 50 66 50 64 72 79 73 74 68 65 60 54 54 47 45 54 62 57 75 336 325 318
312 312 310 309 305 304 291 246 250 245 246 248 248 243 234 199 213 215 217 226 242 244 221 233 253 261 255 264 288 288 279 332 84 44 64 56 66 72 75 66 82 63 70 53 60 50 51 47 45 61 63 0 316 309
307 307 305 297 293 287 260 228 248 242 240 241 240 241 240 212 201 213 222 228 248 231 227 232 237 252 277 269 270 278 255 332 24 27 51 50 69 71 74 76 73 74 69 58 46 52 44 40 45 58 32 17 323 308
303 302 298 289 280 256 228 244 245 238 235 236 238 236 225 192 183 217 221 226 239 226 227 233 252 254 265 273 277 291 332 338 7 6 23 46 72 77 71 65 71 69 65 55 41 31 28 33 37 35 17 359 322 312
299 296 289 283 272 264 231 246 242 234 232 233 235 231 219 190 193 219 232 223 219 230 232 232 245 263 276 296 319 331 341 339 341 4 19 43 51 57 53 55 64 76 65 54 42 40 31 24 20 0 342 324 322 310
297 291 285 282 277 270 263 244 236 231 228 227 229 231 218 187 201 221 224 227 234 248 242 239 247 251 260 290 307 315 316 316 334 2 22 33 42 51 60 63 64 75 65 60 40 33 24 14 14 20 22 9 354 321
293 285 282 273 261 261 246 238 230 226 225 224 225 228 207 191 208 218 223 229 241 255 241 247 249 249 256 270 283 298 305 311 330 353 14 29 36 43 48 52 48 73 65 49 35 28 22 25 24 26 24 28 34 112
290 281 272 254 240 248 230 223 221 218 219 220 229 195 189 192 208 225 251 249 237 244 245 246 253 250 258 270 284 297 303 310 322 353 14 24 28 37 56 81 55 71 57 41 35 29 25 25 28 32 35 37 46 109
292 279 255 228 225 230 219 212 212 212 212 223 177 166 182 213 218 226 244 254 251 241 238 243 247 249 263 280 296 301 307 321 327 351 8 25 34 63 64 66 82 85 51 38 28 26 28 29 30 32 37 47 66 96
291 257 225 202 222 212 206 202 203 208 185 163 169 201 213 214 201 216 240 234 239 242 245 246 250 250 263 274 292 313 314 335 348 359 20 21 26 148 82 69 69 70 49 37 27 27 28 27 30 34 42 58 71 83
318 186 179 188 203 198 196 194 200 179 168 187 202 212 200 191 215 234 227 232 236 237 239 241 244 253 257 281 295 291 332 346 345 0 11 8 19 53 72 103 74 56 46 38 32 29 27 27 28 30 37 54 65 68
88 128 153 187 188 188 189 191 174 184 194 194 186 183 199 216 230 228 228 234 231 230 236 236 237 249 263 279 292 303 322 336 345 24 1 359 28 56 70 68 65 54 45 34 30 26 24 23 23 24 29 36 47 57
108 130 171 177 177 179 178 171 178 167 157 166 191 211 215 223 221 223 221 222 223 228 231 230 233 250 264 272 291 310 333 338 1 349 352 14 30 77 83 62 53 46 36 28 26 24 22 19 19 18 18 25 31 39
119 156 171 168 173 178 174 169 167 173 186 203 209 207 218 219 220 225 225 225 227 231 212 216 235 260 266 280 302 325 329 343 343 344 352 17 83 98 88 64 48 40 32 25 22 20 18 15 15 15 15 17 19 23
144 166 162 173 180 176 174 171 178 191 204 209 215 217 218 222 226 227 230 226 227 205 194 220 247 270 284 300 308 324 334 332 352 357 15 45 94 98 85 61 43 34 29 24 21 18 16 14 13 11 12 13 18 22
136 155 185 183 175 174 172 181 195 202 214 217 224 220 220 222 229 229 229 225 209 194 211 243 258 282 293 319 322 319 334 336 347 9 41 68 87 87 76 49 37 29 25 22 20 15 12 11 9 7 8 9 14 15
187 194 188 177 175 174 182 193 199 207 217 222 223 230 227 229 227 228 226 218 206 206 225 252 267 289 325 302 301 331 338 0 13 42 54 73 83 76 63 43 28 26 21 18 15 10 6 5 3 359 357 358 360 0
190 179 174 170 177 183 191 201 207 214 219 221 221 224 234 236 227 227 221 208 211 222 236 260 287 291 299 304 314 326 355 7 20 43 67 59 54 50 49 37 24 20 15 13 9 4 0 357 353 349 349 348 347 348
190 183 179 178 183 186 201 208 219 217 220 219 223 234 237 235 234 222 214 210 223 236 244 264 281 284 290 308 326 357 20 25 36 34 28 29 35 35 29 23 16 11 9 7 2 357 353 350 348 348 349 350 350 350
180 177 178 185 193 201 207 214 223 217 218 222 229 232 231 228 222 215 209 222 232 244 259 265 273 291 306 319 344 359 19 20 37 18 9 6 9 12 11 7 1 0 359 357 353 350 349 350 352 354 355 355 353 352
171 180 181 193 201 213 219 214 216 222 222 223 224 231 226 226 221 219 228 239 243 252 261 270 280 303 328 343 348 1 17 21 2 351 350 349 354 356 353 351 350 350 348 348 346 347 348 349 353 356 357 358 358 356
186 183 190 200 206 221 225 230 219 226 226 222 225 231 227 229 230 233 243 247 254 256 268 276 289 312 329 337 342 355 6 357 350 350 351 355 349 347 341 339 341 340 342 343 343 344 347 351 355 357 359 358 358 358
186 192 198 206 210 218 217 232 224 228 226 223 227 231 237 238 241 247 253 261 262 266 264 280 288 303 320 330 340 342 342 342 341 342 343 343 345 345 345 345 343 341 340 341 343 343 345 350 353 352 352 353 354 353
193 202 208 212 219 220 222 228 234 228 228 228 230 235 238 246 248 255 263 269 272 267 261 264 266 286 304 313 319 322 326 333 337 338 339 342 342 342 345 346 346 344 343 345 347 346 344 345 346 345 345 344 344 342
203 213 220 218 221 223 225 226 231 230 230 234 239 244 249 254 255 261 268 275 270 271 258 262 270 277 281 301 310 316 325 332 335 338 344 346 350 353 354 353 353 351 350 346 343 342 343 342 340 338 337 336 334 333
213 227 220 221 219 225 227 231 233 235 237 240 248 251 255 258 261 268 275 276 276 264 255 239 247 279 295 305 313 322 330 338 346 350 351 354 356 354 350 348 347 347 351 350 346 342 339 337 335 333 332 331 330 328
223 230 232 236 233 231 236 243 244 247 247 247 247 250 255 259 264 275 285 288 283 278 279 279 283 292 305 326 337 345 350 354 358 5 9 5 358 353 351 347 345 348 349 347 345 341 337 335 333 332 330 329 328 326
242 241 229 233 239 245 242 244 247 250 252 259 253 254 259 266 275 285 287 288 288 285 291 307 321 340 355 357 7 14 10 13 13 10 6 359 355 355 354 354 353 350 347 345 342 340 339 336 334 332 331 330 330 330
254 244 244 243 249 253 253 252 252 258 264 258 256 259 269 282 290 290 290 292 294 302 336 9 348 352 0 358 352 352 9 4 351 345 342 341 341 344 348 348 347 346 346 344 343 342 340 339 339 338 338 336 335 334
248 260 260 256 255 257 261 265 261 265 268 265 275 280 284 288 291 291 290 292 299 313 328 344 9 349 4 359 356 350 344 341 341 341 341 340 343 349 348 347 346 346 346 345 344 345 346 346 346 346 346 345 345 344
253 261 265 266 263 269 270 274 277 278 273 271 281 278 278 286 291 292 290 287 289 291 297 306 321 337 347 350 345 344 341 344 349 351 354 355 354 351 349 348 348 348 348 349 350 352 353 353 354 355 358 360 1 0
259 261 258 262 265 270 273 273 276 277 277 276 278 283 282 283 278 277 279 280 273 265 288 297 314 321 330 340 346 347 351 2 357 356 355 354 353 352 351 351 352 354 355 357 360 1 2 6 7 11 13 13 15 15
267 269 272 274 270 268 273 277 278 277 277 275 277 276 279 281 282 281 282 281 280 280 280 295 317 348 357 356 358 0 3 1 357 356 356 355 354 354 356 358 0 3 4 5 7 10 14 17 18 20 21 22 23 24